Temperature
15 15 15 15 15 15 15 15 15 15 15 15 15 15 15 14 14 14 14 14 14 14 14 14 14 14 14 14 14 14 14 14 15 15 15 15 15 15 15 15 15 15 14
15 15 15 15 15 15 15 15 15 15 15 15 15 15 14 14 14 14 14 14 14 14 14 14 14 14 14 14 14 14 14 14 14 14 14 14 14 14 15 15 15 14 14
15 15 15 15 15 15 15 15 15 15 15 15 14 14 14 14 14 14 14 14 14 14 14 14 14 13 13 13 14 14 14 14 14 14 14 14 14 14 14 14 14 14 14
15 15 15 15 15 15 15 15 15 14 14 14 14 14 14 14 14 14 14 14 14 14 14 14 14 13 13 13 13 13 13 13 13 14 14 14 14 14 14 14 14 14 14
15 15 15 15 15 14 14 14 14 14 14 14 14 14 14 14 14 14 14 13 13 13 13 13 13 13 13 13 13 13 13 13 13 13 13 13 13 13 13 13 13 13 13
15 14 14 14 14 14 14 14 14 14 14 14 14 13 13 13 13 13 13 13 13 13 13 13 13 13 13 13 13 13 13 13 13 13 13 13 13 13 13 13 13 13 13
14 14 14 14 14 14 14 14 14 14 14 14 14 13 13 13 13 13 13 13 13 13 13 13 13 13 13 13 13 13 13 13 12 12 12 12 12 12 13 13 13 13 13
14 14 14 14 14 13 13 13 13 13 13 13 13 13 12 12 12 12 12 13 12 13 13 13 13 13 13 13 13 12 12 12 12 12 12 12 12 12 12 12 12 12 12
14 13 13 13 13 13 13 13 13 13 13 12 12 12 12 12 12 12 12 12 12 12 12 12 12 12 12 12 12 12 12 12 12 12 12 12 12 12 12 12 12 12 12
13 13 13 13 13 13 13 13 12 12 12 12 12 12 12 12 11 11 11 12 12 12 12 12 12 12 12 12 12 12 12 12 12 12 12 12 12 12 12 12 12 12 12
13 13 13 13 13 12 12 12 12 12 12 12 12 12 12 12 11 11 11 11 11 11 11 11 11 11 12 12 12 12 12 12 12 12 12 12 12 11 11 11 11 11 11
13 12 12 12 12 12 12 12 12 12 12 12 12 12 11 11 11 11 11 11 11 11 11 11 11 11 11 11 11 11 11 11 11 11 11 11 11 11 11 11 11 11 11
12 12 12 12 12 12 12 12 12 11 11 11 11 11 11 11 11 11 11 11 10 10 10 10 10 10 10 11 11 11 11 11 11 11 11 11 11 11 11 11 11 11 11
12 12 12 12 12 12 11 11 11 11 11 11 11 11 11 11 11 11 10 10 10 10 10 10 10 10 10 10 10 11 11 11 11 11 11 11 11 11 11 11 11 11 11
12 12 12 12 11 11 11 11 11 11 11 11 11 11 10 10 10 10 10 10 10 9 9 10 10 10 10 10 10 10 10 10 10 11 11 11 11 11 11 11 11 11 11
12 12 11 11 11 11 11 11 11 11 11 11 10 10 10 10 10 10 10 10 10 10 9 9 9 9 10 10 10 10 10 10 10 10 10 11 11 11 11 11 11 11 10
11 11 11 11 11 11 11 10 10 10 10 10 10 10 10 10 10 10 10 10 10 10 9 9 9 9 9 9 9 10 10 10 10 10 10 10 10 10 10 11 11 10 10
11 11 11 11 10 10 10 10 10 10 10 10 10 10 10 10 10 10 10 10 9 9 9 9 9 9 9 9 9 9 9 10 10 10 10 10 10 10 10 10 10 10 10
11 11 10 10 10 10 10 10 10 10 9 9 9 9 9 9 9 9 9 9 9 9 9 9 9 9 9 9 9 9 9 9 9 9 10 10 10 10 10 10 10 10 10
11 10 10 10 10 10 10 10 9 9 9 9 9 9 9 9 9 9 9 9 9 9 9 9 9 9 9 9 9 9 9 9 9 9 9 9 9 9 10 10 10 10 10
10 10 10 10 10 9 9 9 9 9 9 9 9 9 9 9 9 9 9 9 9 9 9 9 8 8 8 9 9 9 9 9 9 9 9 9 9 9 9 9 10 10 10
10 10 9 9 9 9 9 9 9 9 9 8 8 8 8 8 8 9 8 8 8 8 8 8 8 8 8 8 8 8 8 8 8 9 9 9 9 9 9 9 9 9 9
9 9 9 9 9 9 8 8 8 8 8 8 8 8 8 8 8 8 8 8 8 8 8 8 8 8 8 8 8 8 8 8 8 8 8 9 9 9 9 9 9 9 9
9 9 8 8 8 8 8 8 8 8 8 8 8 8 8 8 8 8 8 8 8 8 8 8 8 8 8 8 8 8 8 8 8 8 8 8 8 8 9 9 9 9 8
8 8 8 8 8 8 8 8 8 8 8 7 7 7 7 7 8 8 8 8 8 8 8 8 8 8 8 8 8 8 8 8 8 8 8 8 8 8 8 8 8 8 8
8 8 8 7 7 7 7 7 7 7 7 7 7 7 7 7 7 7 7 7 7 7 7 8 8 8 8 8 8 8 7 7 7 7 7 7 7 7 7 8 8 8 8
Wind_Speed
3 3 3 5 5 5 5 4 4 5 5 5 5 5 5 5 6 7 7 8 8 8 9 9 9 9 9 9 9 9 9 9 9 9 8 8 7 6 5 5 5 5 5
4 3 3 4 4 5 5 5 4 4 4 4 4 4 4 5 5 5 6 7 8 8 8 8 8 8 8 8 8 8 9 9 9 9 8 8 7 5 5 5 5 5 5
6 4 3 3 4 5 6 6 5 5 4 4 4 3 3 4 4 4 5 5 6 7 7 8 8 7 7 7 7 8 8 8 8 8 8 8 7 6 5 5 5 5 5
6 5 4 3 5 6 5 4 4 4 4 4 3 3 3 3 3 4 4 5 5 5 6 7 7 7 6 7 7 7 7 7 8 8 8 8 8 7 6 6 6 5 6
7 6 4 3 5 5 4 4 4 3 3 3 3 3 3 2 2 3 4 4 4 4 5 6 7 6 6 5 6 6 6 6 7 7 7 8 8 8 7 6 5 5 5
7 6 4 4 5 4 4 3 3 3 2 2 3 3 3 3 2 3 3 3 4 4 4 4 4 5 5 4 4 5 5 6 6 6 6 7 7 7 7 6 5 5 4
6 5 4 3 4 3 3 3 3 3 3 3 3 4 4 4 3 3 2 3 3 4 5 4 4 4 3 3 3 4 5 5 5 5 5 6 6 6 6 5 5 5 4
5 5 4 3 3 3 4 4 3 3 2 3 2 2 3 4 4 4 3 3 3 3 4 4 3 4 4 3 3 4 5 4 4 5 5 5 6 6 6 6 5 4 4
4 4 4 3 3 3 2 2 3 3 2 2 2 2 2 1 3 3 4 4 3 3 2 3 4 4 4 4 4 4 5 5 4 4 4 5 5 5 6 6 5 5 5
3 3 3 3 2 2 2 1 2 2 2 1 2 1 1 2 1 2 3 3 3 3 3 3 3 3 3 3 3 4 4 5 5 4 4 4 4 5 5 5 4 4 4
3 2 3 2 2 1 1 2 2 2 1 1 1 1 1 2 1 1 2 3 3 3 2 2 2 2 3 3 3 4 5 5 6 6 5 5 4 4 5 5 3 3 4
2 2 2 2 1 1 1 1 1 1 1 1 1 1 1 1 0 1 1 1 2 3 2 2 1 2 2 3 3 5 5 6 6 7 6 5 4 4 4 4 3 3 3
1 1 1 1 1 0 0 1 1 1 1 1 1 0 0 0 1 1 2 0 1 2 2 2 1 1 2 2 2 4 4 5 6 6 6 6 5 4 3 3 2 3 3
1 1 0 0 0 0 1 1 1 0 1 1 1 0 0 0 1 1 2 2 1 1 2 2 2 1 1 1 1 2 2 4 5 5 5 5 5 5 3 3 2 2 3
1 0 1 1 1 1 1 2 1 1 1 1 0 1 1 1 0 1 1 2 3 1 2 2 1 2 2 1 1 1 1 3 4 5 5 4 5 5 5 4 2 1 2
0 1 1 1 1 2 2 2 1 1 2 1 0 1 1 1 1 0 1 1 2 3 2 2 2 2 2 1 2 1 2 3 3 4 4 4 4 4 4 4 2 1 2
1 1 1 1 1 1 1 2 1 1 1 1 1 1 1 1 1 1 0 1 1 2 2 2 2 2 1 1 1 2 2 2 2 4 4 4 3 3 3 3 2 0 1
1 1 1 1 1 1 1 1 1 0 1 0 1 1 1 1 1 1 0 0 0 1 2 2 2 1 1 1 0 1 2 2 2 4 4 4 3 3 3 2 2 1 1
1 1 1 1 1 1 1 2 2 1 0 1 1 1 2 0 1 1 0 0 0 0 0 1 2 1 1 1 1 2 2 2 3 4 4 4 4 3 3 2 2 1 1
2 2 1 1 1 1 1 1 1 0 0 1 1 1 2 2 2 1 1 1 1 0 0 0 1 1 1 1 1 1 2 2 2 3 3 3 4 4 3 3 2 1 1
2 2 2 2 1 1 1 2 1 1 1 1 2 2 2 2 2 2 1 1 1 0 0 1 1 1 1 1 1 1 1 2 3 2 2 2 1 1 2 3 3 2 2
2 2 2 2 2 1 2 3 3 2 1 1 2 2 2 1 2 3 3 2 1 2 2 2 1 2 3 2 1 1 1 1 3 2 1 2 1 1 2 2 2 2 2
2 2 2 2 1 1 2 3 4 2 1 1 1 2 2 3 3 2 3 3 3 3 3 3 3 4 4 3 2 2 2 2 3 2 0 2 1 2 3 3 3 3 3
2 1 1 1 1 2 4 3 3 2 1 1 1 1 2 3 3 3 2 2 3 3 4 3 3 5 4 4 4 4 3 2 2 1 1 1 2 2 2 3 4 4 4
1 1 1 1 1 2 3 4 3 2 2 2 2 2 3 3 5 4 2 2 3 4 5 4 4 5 5 4 3 2 1 1 2 2 1 1 1 2 2 2 3 3 4
1 2 2 1 1 1 3 3 3 1 1 2 3 3 4 5 6 4 2 1 3 4 3 3 3 4 3 3 3 3 4 2 2 2 2 2 1 0 2 2 1 2 2
Wind_Direction
72 60 51 47 45 51 57 58 57 59 57 56 65 71 68 68 64 61 57 57 55 59 64 63 63 67 68 65 62 59 56 51 48 46 46 51 56 65 70 70 76 78 73
83 72 58 50 45 49 54 61 63 68 65 66 56 61 68 69 64 62 56 54 53 58 63 64 64 65 68 64 62 58 54 49 46 44 47 47 50 60 69 73 76 78 81
81 77 64 55 48 51 58 62 57 61 55 51 44 45 62 63 62 61 61 56 52 54 64 65 63 61 64 62 60 57 54 50 45 47 48 48 48 55 67 73 76 77 78
77 73 65 55 55 58 61 64 54 52 44 39 32 28 44 55 56 59 64 56 54 53 58 63 62 57 57 59 57 56 55 50 47 48 49 47 49 53 66 74 75 78 78
76 77 70 59 64 62 53 61 60 70 58 42 40 37 31 36 42 63 58 54 57 57 58 56 53 50 49 55 55 53 54 50 53 50 50 48 50 52 58 69 69 73 76
73 76 73 59 64 66 53 56 62 57 60 48 50 39 21 21 40 44 51 51 47 48 52 49 46 38 35 42 47 45 45 45 53 54 53 50 48 50 51 58 60 61 67
69 72 68 61 63 71 73 78 70 61 45 47 57 27 11 14 27 34 40 48 47 47 47 40 35 24 13 20 36 36 38 44 48 52 54 52 48 47 47 52 59 56 56
67 76 74 73 71 74 68 69 75 71 48 44 71 62 14 358 0 11 20 31 34 44 39 32 33 32 27 30 32 35 35 38 42 45 49 48 51 48 45 48 54 52 53
70 74 83 82 77 83 90 82 89 92 73 9 47 100 108 271 319 340 8 22 26 29 23 30 41 35 30 37 38 38 36 34 35 37 41 45 49 45 43 43 52 54 53
64 75 87 87 85 83 93 82 82 92 110 64 356 29 124 153 170 316 339 3 9 19 8 25 38 35 24 33 35 37 38 39 34 36 42 40 42 43 38 34 45 52 51
38 58 91 94 88 82 76 68 67 76 98 116 94 33 47 50 76 168 292 329 350 357 358 13 39 43 35 43 49 42 40 39 35 33 33 34 36 38 36 32 48 54 52
5 22 60 85 93 90 75 84 81 90 78 84 87 91 109 113 226 155 207 300 320 326 346 4 22 31 40 42 43 41 42 34 32 32 31 26 26 32 31 33 51 58 55
330 327 23 54 56 10 69 87 92 73 83 94 91 83 121 166 188 170 145 168 309 316 342 353 334 350 19 34 33 36 35 28 23 22 22 20 16 19 24 29 50 60 54
232 275 38 350 342 43 59 80 93 51 65 77 42 39 53 295 182 167 168 151 64 342 338 307 327 307 341 358 2 22 19 8 8 10 12 14 14 12 10 12 31 58 54
225 76 73 58 32 58 80 94 104 88 82 78 50 34 13 322 316 191 164 163 148 179 288 286 303 303 289 305 323 355 351 344 348 355 359 6 9 10 11 7 10 46 62
153 115 89 87 75 62 68 89 94 82 90 53 60 46 359 335 344 32 155 167 163 166 225 259 254 284 285 319 331 339 318 331 336 343 346 351 358 6 6 357 5 36 73
168 150 163 147 131 112 98 101 101 87 87 17 9 28 328 327 13 349 58 138 159 153 202 283 291 302 274 287 337 336 329 322 321 331 333 330 334 344 345 356 5 36 122
159 155 147 138 146 140 144 140 150 92 108 328 315 345 313 337 352 344 50 128 184 178 170 262 297 309 266 261 296 327 334 331 318 319 319 312 302 311 325 348 20 45 106
111 95 120 172 179 187 194 188 178 201 217 258 264 252 273 283 308 310 317 230 236 296 152 208 284 292 301 349 17 338 330 329 322 321 313 302 290 281 294 311 333 19 77
118 111 108 146 159 161 186 169 157 187 302 300 284 258 261 242 243 257 285 256 231 113 144 206 293 316 314 333 44 348 330 330 319 324 321 304 292 274 279 285 290 296 297
111 118 105 87 82 97 99 86 95 72 17 344 335 314 292 295 308 301 298 265 184 181 223 219 280 312 309 342 290 266 282 317 310 312 328 309 295 289 284 272 264 265 269
101 92 98 100 72 37 31 44 63 74 49 23 341 331 321 330 342 339 329 317 258 215 215 208 234 236 252 250 243 243 240 341 304 299 318 308 337 286 277 257 252 237 250
110 103 93 95 76 354 33 41 49 77 70 4 340 349 349 337 342 321 322 327 306 274 243 216 221 235 234 229 218 228 226 234 252 269 80 290 314 283 278 274 255 239 247
137 129 109 95 63 14 28 30 43 60 46 2 333 331 343 331 333 348 337 341 329 305 274 251 233 245 240 223 212 216 219 241 273 286 146 253 294 281 296 287 268 252 253
122 132 141 104 71 6 21 34 49 59 37 4 349 351 356 333 332 356 11 334 321 315 317 300 282 278 274 264 215 158 146 160 271 279 219 187 260 298 298 287 283 274 258
134 130 108 110 96 7 10 25 46 85 43 359 348 343 347 347 342 347 342 305 299 299 312 323 319 316 312 299 260 204 192 199 218 252 235 189 219 302 307 293 305 298 275
Height
1532 1531 1531 1530 1530 1529 1529 1528 1528 1528 1527 1527 1526 1526 1525 1524 1524 1523 1522 1521 1521 1520 1520 1519 1518 1518 1517 1516 1516 1515 1514 1513 1513 1512 1511 1511 1510 1510 1510 1510 1510 1510 1510
1533 1533 1532 1531 1531 1530 1530 1529 1529 1528 1528 1528 1527 1527 1526 1525 1525 1524 1523 1522 1522 1521 1520 1520 1519 1518 1518 1517 1516 1515 1515 1514 1513 1512 1511 1511 1510 1509 1509 1509 1509 1509 1509
1534 1533 1533 1532 1532 1531 1531 1530 1530 1529 1528 1528 1527 1527 1526 1526 1525 1525 1524 1523 1522 1521 1521 1520 1519 1519 1518 1517 1517 1516 1515 1514 1513 1512 1512 1511 1510 1509 1509 1508 1509 1509 1509
1535 1534 1533 1533 1532 1532 1531 1531 1530 1529 1529 1528 1528 1527 1527 1526 1526 1525 1524 1523 1522 1522 1521 1520 1520 1519 1518 1518 1517 1516 1516 1514 1513 1513 1512 1511 1510 1509 1508 1508 1508 1509 1509
1535 1535 1534 1533 1533 1532 1532 1531 1530 1529 1529 1528 1528 1528 1527 1526 1526 1525 1525 1524 1523 1522 1521 1521 1520 1519 1519 1518 1517 1517 1516 1515 1513 1512 1511 1510 1510 1509 1508 1508 1508 1508 1509
1536 1535 1535 1534 1533 1533 1532 1531 1530 1530 1529 1528 1528 1528 1527 1527 1526 1525 1525 1524 1523 1522 1522 1521 1520 1519 1519 1518 1517 1517 1516 1515 1514 1512 1511 1510 1509 1508 1508 1508 1508 1508 1508
1536 1535 1535 1534 1533 1533 1532 1531 1531 1530 1529 1528 1528 1527 1527 1527 1526 1526 1525 1524 1523 1522 1522 1521 1520 1520 1519 1518 1517 1517 1516 1515 1513 1512 1511 1510 1509 1508 1507 1507 1507 1507 1507
1536 1535 1535 1534 1533 1533 1532 1531 1531 1530 1529 1528 1527 1527 1527 1528 1526 1526 1525 1524 1523 1522 1521 1521 1520 1519 1519 1518 1517 1516 1515 1514 1513 1512 1511 1509 1509 1508 1507 1506 1506 1506 1506
1536 1535 1535 1534 1533 1533 1532 1531 1531 1530 1529 1529 1528 1528 1527 1526 1526 1526 1525 1524 1523 1522 1521 1520 1520 1519 1518 1518 1517 1516 1515 1514 1513 1512 1510 1509 1508 1507 1507 1506 1505 1506 1506
1536 1535 1534 1534 1533 1532 1532 1531 1531 1530 1529 1528 1528 1528 1528 1527 1526 1525 1524 1523 1523 1522 1521 1520 1519 1518 1518 1517 1517 1516 1515 1514 1513 1512 1510 1509 1508 1507 1506 1505 1504 1505 1505
1535 1534 1534 1533 1533 1532 1532 1531 1530 1530 1529 1529 1528 1527 1526 1526 1526 1525 1523 1522 1522 1521 1520 1519 1518 1518 1517 1516 1516 1514 1513 1513 1512 1511 1510 1508 1507 1506 1505 1504 1503 1504 1505
1534 1534 1533 1533 1532 1532 1531 1531 1530 1529 1529 1528 1527 1526 1526 1525 1525 1524 1523 1521 1520 1520 1519 1519 1518 1517 1516 1515 1515 1514 1513 1512 1511 1510 1509 1508 1507 1505 1504 1503 1503 1504 1504
1533 1533 1532 1532 1531 1531 1530 1530 1529 1529 1528 1528 1527 1526 1525 1525 1524 1523 1522 1520 1519 1519 1518 1518 1517 1516 1515 1515 1514 1513 1512 1511 1510 1509 1508 1507 1506 1505 1504 1504 1504 1504 1504
1532 1532 1531 1531 1530 1529 1529 1528 1528 1527 1527 1526 1526 1525 1524 1524 1523 1522 1521 1519 1518 1517 1517 1516 1516 1515 1514 1514 1513 1512 1512 1511 1510 1509 1508 1507 1506 1505 1505 1504 1504 1504 1504
1531 1531 1530 1529 1529 1528 1527 1527 1526 1526 1525 1525 1524 1524 1523 1522 1522 1521 1520 1519 1518 1516 1515 1515 1514 1514 1513 1513 1512 1512 1511 1510 1509 1508 1507 1507 1506 1505 1505 1505 1504 1504 1504
1530 1529 1529 1528 1527 1527 1526 1525 1525 1524 1524 1523 1523 1522 1521 1521 1520 1519 1518 1517 1517 1516 1515 1513 1513 1512 1512 1512 1511 1511 1510 1509 1508 1508 1507 1506 1505 1505 1505 1505 1504 1504 1504
1528 1528 1527 1527 1526 1525 1525 1524 1523 1523 1522 1521 1521 1520 1519 1519 1518 1518 1517 1516 1515 1515 1513 1512 1511 1511 1510 1510 1510 1509 1509 1508 1507 1507 1506 1505 1505 1504 1504 1504 1504 1504 1504
1526 1526 1525 1525 1524 1524 1523 1522 1522 1521 1520 1519 1519 1518 1518 1517 1517 1516 1515 1514 1514 1513 1512 1510 1510 1509 1509 1509 1508 1508 1507 1507 1506 1506 1505 1504 1504 1504 1503 1503 1504 1503 1503
1524 1524 1523 1523 1522 1522 1521 1521 1520 1519 1519 1518 1517 1517 1516 1516 1515 1514 1513 1513 1512 1511 1510 1509 1508 1508 1507 1507 1506 1506 1506 1505 1505 1505 1504 1503 1502 1502 1502 1502 1502 1503 1502
1522 1521 1521 1521 1520 1520 1519 1519 1518 1518 1517 1516 1516 1515 1515 1514 1513 1513 1512 1511 1510 1509 1509 1508 1507 1506 1506 1506 1505 1504 1504 1504 1503 1503 1502 1501 1501 1500 1500 1501 1501 1501 1501
1520 1519 1519 1519 1518 1518 1517 1517 1516 1516 1515 1514 1514 1513 1513 1512 1512 1511 1510 1510 1509 1508 1507 1506 1505 1505 1504 1504 1504 1503 1503 1502 1501 1501 1500 1499 1499 1498 1499 1499 1499 1500 1500
1518 1518 1517 1517 1516 1516 1516 1515 1515 1514 1513 1513 1512 1512 1511 1511 1510 1509 1509 1508 1508 1507 1505 1505 1504 1503 1503 1503 1502 1502 1501 1500 1499 1499 1498 1497 1497 1496 1497 1497 1497 1498 1498
1516 1516 1516 1515 1514 1514 1514 1514 1513 1512 1512 1511 1510 1510 1509 1509 1508 1507 1506 1506 1505 1505 1504 1504 1502 1502 1501 1501 1500 1500 1500 1499 1498 1497 1497 1495 1495 1494 1495 1495 1495 1495 1495
1514 1514 1514 1513 1513 1512 1512 1512 1511 1510 1509 1509 1508 1508 1507 1507 1506 1505 1504 1503 1502 1502 1501 1501 1500 1500 1500 1499 1499 1498 1497 1497 1496 1496 1495 1494 1493 1493 1493 1493 1493 1493 1493
1512 1512 1512 1511 1511 1510 1510 1510 1509 1508 1507 1507 1506 1506 1505 1505 1504 1503 1502 1501 1500 1499 1499 1498 1498 1497 1497 1496 1496 1495 1494 1494 1493 1493 1493 1492 1491 1490 1490 1490 1490 1490 1490
1510 1510 1509 1509 1509 1508 1508 1508 1507 1506 1505 1504 1504 1503 1503 1502 1501 1500 1499 1498 1497 1496 1496 1495 1495 1494 1494 1493 1493 1492 1492 1491 1490 1490 1490 1490 1489 1489 1487 1487 1487 1488 1488